Flag for Canada Weather past 2 weeks in Ottawa, Ontario, Canada

Now
77 °F

Passing clouds.


Feels Like: 79 °F
Forecast: 54 / 83 °F
Wind: 2 mph from North

Location: Ottawa Int'L. Ont.

Current Time: Sep 5, 2015 at 1:14:39 PM

Latest Report: Sep 5, 2015 at 12:00 PM


Visibility: 15 mi

Pressure: 30.22 "Hg

Humidity: 65%

Dew point: 64 °F

Location of OttawaLocation

Historic Weather in Ottawa — Graph

°F

Ottawa temperature yesterday

Maximum temperature yesterday: 77 °F (at 3:00 PM)
Minimum temperature yesterday: 55 °F (at 6:00 AM)
Average temperature yesterday: 66 °F

Past Weeks' High & Low Weather Summary

 TemperatureHumidityPressure
High82 °F (Sep 1, 3:00 PM)100% (Aug 22, 5:00 AM)30.26 "Hg (Aug 22, 5:00 AM)
Low48 °F (Aug 28, 6:00 AM)39% (Sep 4, 5:00 PM)29.77 "Hg (Aug 24, 4:00 PM)
Average66 °F79%30.02 "Hg
* Reported Aug 21 12:00 Noon — Sep 5 12:00 Noon, Ottawa, Weather by CustomWeather, © 2015

Note: Actual official high and low records may vary slightly from our data, if they occured in-between our weather recording intervals... More about our weather records

Advertising

Ottawa weather history for previous 24 hours

 ConditionsComfort  
Time TempWeatherWind HumidityBarometerVisibility
12:00 PM
Sat, Sep 5
77 °FPassing clouds.2 mph65%30.22 "Hg15 mi
11:00 AM73 °FPassing clouds.6 mph65%30.23 "Hg15 mi
10:00 AM68 °FPartly sunny.5 mph69%30.24 "Hg15 mi
9:00 AM64 °FPassing clouds.6 mph73%30.26 "Hg15 mi
8:00 AM59 °FPassing clouds.7 mph77%30.26 "Hg15 mi
7:00 AM54 °FPassing clouds.6 mph88%30.26 "Hg15 mi
6:00 AM55 °FPassing clouds.7 mph82%30.24 "Hg15 mi
5:00 AM54 °FPassing clouds.10 mph88%30.22 "Hg15 mi
4:00 AM54 °FPassing clouds.9 mph88%30.22 "Hg15 mi
3:00 AM55 °FPassing clouds.10 mph82%30.21 "Hg15 mi
2:00 AM54 °FPassing clouds.10 mph82%30.21 "Hg15 mi
1:00 AM54 °FPassing clouds.8 mph82%30.22 "Hg15 mi
12:00 AM55 °FPassing clouds.8 mph77%30.22 "Hg15 mi
11:00 PM
Fri, Sep 4
59 °FPassing clouds.7 mph68%30.22 "Hg15 mi
10:00 PM61 °FPassing clouds.8 mph68%30.23 "Hg15 mi
9:00 PM63 °FPassing clouds.7 mph64%30.22 "Hg15 mi
8:00 PM66 °FPassing clouds.8 mph56%30.20 "Hg15 mi
7:00 PM70 °FScattered clouds.8 mph53%30.20 "Hg15 mi
6:00 PM75 °FScattered clouds.9 mph44%30.19 "Hg15 mi
5:00 PM77 °FScattered clouds.13 mph39%30.19 "Hg15 mi
4:00 PM77 °FScattered clouds.12 mph44%30.18 "Hg15 mi
3:00 PM77 °FScattered clouds.9 mph44%30.19 "Hg15 mi
2:00 PM75 °FScattered clouds.9 mph47%30.19 "Hg15 mi
1:00 PM75 °FScattered clouds.7 mph50%30.19 "Hg15 mi
Weather by CustomWeather, © 2015

See weather overviewHow to use our weather pages